FW9201 Weather Reports


Display with metric or nautical units.
time (UTC)temp
F
wind
direction
speed
MPH
gust
MPH
rain 1hr
in
rain 24hr
in
rain mn
in
humidity
%
barometer
mb
20260508023236 56 225 0.0 0.0 0.00 0.00 0.00 63 1012.3
20260508022731 57 232 0.0 0.0 0.00 0.00 0.00 63 1012.1
20260508022228 56 278 0.0 0.0 0.00 0.00 0.00 62 1012.0
20260508021725 57 238 0.0 0.0 0.00 0.00 0.00 63 1012.2
20260508021220 57 228 0.0 0.0 0.00 0.00 0.00 61 1012.1
20260508020718 57 229 0.0 0.0 0.00 0.00 0.00 60 1012.0
20260508020215 57 232 0.0 0.0 0.00 0.00 0.00 61 1012.1
20260508015712 58 232 0.0 0.0 0.00 0.00 0.00 60 1011.9
20260508015209 58 220 0.0 0.0 0.00 0.00 0.00 58 1011.5
20260508014706 58 233 0.0 0.0 0.00 0.00 0.00 59 1011.8
20260508014202 58 244 0.0 0.0 0.00 0.00 0.00 60 1011.9
20260508013658 58 219 0.0 0.0 0.00 0.00 0.00 57 1011.6
20260508013155 58 222 0.0 0.0 0.00 0.00 0.00 58 1011.8
20260508012652 59 222 0.0 0.0 0.00 0.00 0.00 57 1011.4
20260508012149 59 220 0.0 0.0 0.00 0.00 0.00 56 1011.8
20260508011648 60 219 0.0 0.0 0.00 0.00 0.00 54 1011.6
20260508011145 60 228 0.0 0.0 0.00 0.00 0.00 55 1011.6
20260508010641 61 215 0.0 0.0 0.00 0.00 0.00 50 1011.6
20260508010139 62 210 0.0 0.0 0.00 0.00 0.00 50 1011.6
20260508005636 62 209 0.0 0.0 0.00 0.00 0.00 49 1011.8
20260508005133 62 222 0.0 0.0 0.00 0.00 0.00 50 1011.8
20260508004628 62 212 0.0 0.0 0.00 0.00 0.00 49 1011.8
20260508004125 62 216 0.0 0.0 0.00 0.00 0.00 50 1012.0
20260508003621 62 217 0.0 0.0 0.00 0.00 0.00 48 1011.9
20260508003119 62 207 0.0 0.0 0.00 0.00 0.00 48 1012.0
20260508002615 62 216 0.0 0.0 0.00 0.00 0.00 48 1011.8
20260508002113 62 204 0.0 0.0 0.00 0.00 0.00 47 1011.8
20260508001608 62 196 0.0 0.0 0.00 0.00 0.00 47 1011.9
20260508001105 62 191 0.0 0.0 0.00 0.00 0.00 49 1011.8
20260508000600 62 157 0.0 0.0 0.00 0.00 0.00 47 1011.9
20260508000058 62 193 0.0 0.0 0.00 0.00 0.00 49 1012.0
20260507235555 62 235 0.0 0.0 0.00 0.00 0.00 49 1011.9
20260507235052 62 191 0.0 0.0 0.00 0.00 0.00 51 1012.0
20260507234548 62 192 4.0 7.0 0.00 0.00 0.00 51 1012.1
20260507234045 62 197 0.0 0.0 0.00 0.00 0.00 51 1011.8
20260507233542 63 146 5.0 6.0 0.00 0.00 0.00 51 1011.9
20260507233041 62 214 0.0 0.0 0.00 0.00 0.00 52 1011.8
20260507232536 60 187 4.0 5.0 0.00 0.00 0.00 55 1012.0
20260507232034 61 144 5.0 7.0 0.00 0.00 0.00 56 1012.2
20260507231530 61 181 7.0 7.0 0.00 0.00 0.00 54 1012.0
20260507231028 60 161 4.0 7.0 0.00 0.00 0.00 54 1012.1
20260507230524 60 173 0.0 0.0 0.00 0.00 0.00 53 1012.0
20260507230021 60 191 4.0 7.0 0.00 0.00 0.00 54 1012.1
20260507225515 61 175 3.0 3.0 0.00 0.00 0.00 53 1012.0
20260507225012 62 160 5.0 6.0 0.00 0.00 0.00 53 1012.3
20260507224508 62 150 6.0 7.0 0.00 0.00 0.00 53 1012.1
20260507224005 62 137 4.0 7.0 0.00 0.00 0.00 53 1012.1
20260507223501 61 202 2.0 3.0 0.00 0.00 0.00 54 1012.1
20260507222958 61 165 0.0 0.0 0.00 0.00 0.00 58 1012.2
20260507222455 62 164 0.0 0.0 0.00 0.00 0.00 58 1012.4
20260507221951 61 159 6.0 9.0 0.00 0.00 0.00 58 1012.3
20260507221448 62 195 5.0 6.0 0.00 0.00 0.00 59 1012.2
20260507220944 61 153 5.0 7.0 0.00 0.00 0.00 54 1012.6
20260507220442 61 163 4.0 5.0 0.00 0.00 0.00 56 1012.8
20260507215939 61 174 2.0 5.0 0.00 0.00 0.00 58 1012.8
20260507215435 60 156 5.0 6.0 0.00 0.00 0.00 57 1012.6
20260507214933 60 161 0.0 0.0 0.00 0.00 0.00 57 1012.8
20260507214430 60 144 6.0 10.0 0.00 0.00 0.00 57 1012.8
20260507213926 60 139 7.0 10.0 0.00 0.00 0.00 55 1012.5
20260507213422 61 178 1.0 2.0 0.00 0.00 0.00 54 1012.5
20260507212919 61 196 0.0 1.0 0.00 0.00 0.00 53 1012.9
20260507212415 62 163 8.0 10.0 0.00 0.00 0.00 51 1012.5
20260507211912 62 120 5.0 6.0 0.00 0.00 0.00 51 1012.4
20260507211408 63 150 6.0 7.0 0.00 0.00 0.00 49 1012.5
20260507210905 64 154 7.0 9.0 0.00 0.00 0.00 48 1012.5
20260507210403 64 195 0.0 0.0 0.00 0.00 0.00 47 1012.1
20260507205859 63 206 0.0 0.0 0.00 0.00 0.00 46 1012.4
20260507205356 63 135 4.0 5.0 0.00 0.00 0.00 49 1012.4
20260507204852 63 167 3.0 3.0 0.00 0.00 0.00 48 1012.4
20260507204349 63 174 4.0 5.0 0.00 0.00 0.00 49 1012.5
20260507203847 64 172 3.0 3.0 0.00 0.00 0.00 46 1012.5
20260507203345 65 175 0.0 0.0 0.00 0.00 0.00 48 1012.4
20260507202841 64 226 0.0 0.0 0.00 0.00 0.00 43 1012.4
20260507202337 63 249 0.0 0.0 0.00 0.00 0.00 44 1012.4
20260507201833 64 7 0.0 0.0 0.00 0.00 0.00 43 1012.5
20260507201328 64 309 0.0 0.0 0.00 0.00 0.00 43 1012.4
20260507200825 63 153 0.0 0.0 0.00 0.00 0.00 43 1012.5
20260507200321 63 139 0.0 0.0 0.00 0.00 0.00 44 1012.3
20260507195817 64 158 0.0 0.0 0.00 0.00 0.00 41 1012.5
20260507195315 65 148 0.0 0.0 0.00 0.00 0.00 42 1012.4
20260507194812 65 271 0.0 0.0 0.00 0.00 0.00 41 1012.6
20260507194308 64 163 0.0 1.0 0.00 0.00 0.00 42 1012.3
20260507193805 66 188 0.0 0.0 0.00 0.00 0.00 40 1012.4
20260507193302 64 186 2.0 3.0 0.00 0.00 0.00 43 1012.6
20260507192757 63 163 1.0 1.0 0.00 0.00 0.00 44 1012.5
20260507192254 63 152 0.0 0.0 0.00 0.00 0.00 44 1012.5
20260507191750 63 154 0.0 0.0 0.00 0.00 0.00 45 1012.6
20260507191247 64 148 0.0 1.0 0.00 0.00 0.00 44 1012.8
20260507190744 64 180 0.0 0.0 0.00 0.00 0.00 43 1012.5
20260507190243 63 197 0.0 0.0 0.00 0.00 0.00 42 1012.6
20260507185741 63 338 0.0 0.0 0.00 0.00 0.00 45 1012.6
20260507185237 63 302 0.0 0.0 0.00 0.00 0.00 43 1012.9
20260507184735 64 258 0.0 0.0 0.00 0.00 0.00 43 1013.0
20260507184233 63 160 1.0 2.0 0.00 0.00 0.00 43 1012.6
20260507183729 63 258 0.0 0.0 0.00 0.00 0.00 44 1012.8
20260507183226 63 224 0.0 0.0 0.00 0.00 0.00 42 1013.1
20260507182724 62 52 0.0 0.0 0.00 0.00 0.00 44 1013.1
20260507182218 62 287 0.0 0.0 0.00 0.00 0.00 46 1013.2
20260507181716 63 284 0.0 0.0 0.00 0.00 0.00 43 1013.0
20260507181212 62 204 0.0 0.0 0.00 0.00 0.00 43 1013.1
20260507180710 62 267 0.0 0.0 0.00 0.00 0.00 45 1013.1
20260507180206 62 287 1.0 5.0 0.00 0.00 0.00 44 1013.2
20260507175701 63 297 0.0 2.0 0.00 0.00 0.00 44 1013.3
20260507175158 62 328 4.0 5.0 0.00 0.00 0.00 43 1013.3
20260507174656 63 309 0.0 0.0 0.00 0.00 0.00 44 1013.4
20260507174154 62 288 0.0 0.0 0.00 0.00 0.00 45 1013.4
20260507173651 62 246 3.0 3.0 0.00 0.00 0.00 45 1013.4
20260507173147 62 311 3.0 6.0 0.00 0.00 0.00 46 1013.4
20260507172643 62 296 6.0 9.0 0.00 0.00 0.00 46 1013.2
20260507172136 62 287 4.0 5.0 0.00 0.00 0.00 45 1013.3
20260507171635 62 254 0.0 0.0 0.00 0.00 0.00 46 1013.1
20260507171133 62 306 7.0 8.0 0.00 0.00 0.00 48 1013.2
20260507170630 63 357 4.0 7.0 0.00 0.00 0.00 46 1013.4
20260507170127 63 317 5.0 6.0 0.00 0.00 0.00 49 1013.3
20260507165622 61 346 5.0 7.0 0.00 0.00 0.00 50 1013.3
20260507165119 60 282 0.0 1.0 0.00 0.00 0.00 50 1013.0
20260507164615 60 272 5.0 9.0 0.00 0.00 0.00 51 1013.1
20260507164112 60 258 0.0 0.0 0.00 0.00 0.00 55 1013.1
20260507163609 59 175 0.0 0.0 0.00 0.00 0.00 59 1013.0
20260507163107 59 168 0.0 0.0 0.00 0.00 0.00 58 1013.2
20260507162602 60 199 0.0 0.0 0.00 0.00 0.00 57 1013.0
20260507162059 59 197 0.0 0.0 0.00 0.00 0.00 56 1013.3
20260507161555 58 183 0.0 0.0 0.00 0.00 0.00 59 1013.1
20260507161052 58 175 0.0 0.0 0.00 0.00 0.00 60 1013.1
20260507160548 59 168 0.0 0.0 0.00 0.00 0.00 64 1013.1
20260507160044 58 161 0.0 0.0 0.00 0.00 0.00 64 1012.9
20260507155540 58 157 0.0 0.0 0.00 0.00 0.00 61 1013.2
20260507155037 57 183 0.0 0.0 0.00 0.00 0.00 65 1013.1
20260507154534 57 167 0.0 0.0 0.00 0.00 0.00 67 1013.1
20260507154031 56 188 1.0 2.0 0.00 0.00 0.00 69 1013.0
20260507153528 56 194 0.0 0.0 0.00 0.00 0.00 68 1012.8
20260507153024 55 187 0.0 0.0 0.00 0.00 0.00 71 1013.1
20260507152520 55 166 0.0 0.0 0.00 0.00 0.00 73 1013.0
20260507152017 56 163 0.0 0.0 0.00 0.00 0.00 71 1012.9
20260507151513 57 164 0.0 0.0 0.00 0.00 0.00 63 1013.0
20260507151010 56 158 0.0 0.0 0.00 0.00 0.00 67 1012.8
20260507150507 56 164 2.0 3.0 0.00 0.00 0.00 70 1013.0
20260507150004 56 196 0.0 0.0 0.00 0.00 0.00 71 1013.0
20260507145458 56 199 0.0 0.0 0.00 0.00 0.00 72 1012.5
20260507144956 55 194 0.0 0.0 0.00 0.00 0.00 72 1013.0
20260507144453 55 186 1.0 1.0 0.00 0.00 0.00 73 1012.8
20260507143950 55 188 0.0 0.0 0.00 0.00 0.00 72 1012.6
20260507143448 55 173 2.0 2.0 0.00 0.00 0.00 74 1012.4
20260507142944 54 175 0.0 0.0 0.00 0.00 0.00 73 1012.5
20260507142440 54 208 0.0 0.0 0.00 0.00 0.00 77 1012.3
20260507141937 54 212 0.0 0.0 0.00 0.00 0.00 75 1012.3
20260507141433 54 221 0.0 0.0 0.00 0.00 0.00 76 1012.3
20260507140930 53 221 0.0 0.0 0.00 0.00 0.00 78 1012.4
20260507140426 53 221 0.0 0.0 0.00 0.00 0.00 76 1012.1
20260507135925 53 220 0.0 0.0 0.00 0.00 0.00 77 1012.1
20260507135421 53 228 0.0 0.0 0.00 0.00 0.00 78 1012.4
20260507134918 53 232 0.0 0.0 0.00 0.00 0.00 78 1012.3
20260507134415 53 239 0.0 0.0 0.00 0.00 0.00 77 1012.0
20260507133910 53 211 0.0 0.0 0.00 0.00 0.00 73 1012.0
20260507133406 53 207 0.0 0.0 0.00 0.00 0.00 76 1011.9
20260507132905 53 195 0.0 0.0 0.00 0.00 0.00 76 1011.9
20260507132401 53 222 0.0 0.0 0.00 0.00 0.00 73 1011.8
20260507131858 52 226 0.0 0.0 0.00 0.00 0.00 73 1012.0
20260507131355 53 225 0.0 0.0 0.00 0.00 0.00 72 1011.9
20260507130852 52 224 0.0 0.0 0.00 0.00 0.00 76 1011.8
20260507130349 52 226 0.0 0.0 0.00 0.00 0.00 75 1011.5
20260507125848 53 227 0.0 0.0 0.00 0.00 0.00 76 1011.4
20260507125345 54 220 0.0 0.0 0.00 0.00 0.00 71 1011.8
20260507124843 54 195 0.0 0.0 0.00 0.00 0.00 69 1011.4
20260507124338 54 174 0.0 0.0 0.00 0.00 0.00 68 1011.2
20260507123837 54 201 0.0 0.0 0.00 0.00 0.00 69 1011.9
20260507123334 54 199 0.0 0.0 0.00 0.00 0.00 70 1011.6
20260507122830 54 171 2.0 2.0 0.00 0.00 0.00 69 1011.6
20260507122325 55 182 2.0 2.0 0.00 0.00 0.00 69 1011.8
20260507121823 54 207 0.0 0.0 0.00 0.00 0.00 66 1011.8
20260507121318 55 196 0.0 1.0 0.00 0.00 0.00 65 1011.8
20260507120814 55 163 3.0 3.0 0.00 0.00 0.00 65 1011.8
20260507120311 55 185 0.0 0.0 0.00 0.00 0.00 65 1011.5
20260507115807 54 114 0.0 0.0 0.00 0.00 0.00 65 1011.5
20260507115306 54 214 0.0 0.0 0.00 0.00 0.00 68 1011.5
20260507114759 54 199 0.0 0.0 0.00 0.00 0.00 67 1011.1
20260507114256 54 216 0.0 0.0 0.00 0.00 0.00 73 1011.1
20260507113753 53 207 0.0 0.0 0.00 0.00 0.00 72 1011.2
20260507113250 54 225 0.0 0.0 0.00 0.00 0.00 74 1011.4
20260507112748 54 217 0.0 0.0 0.00 0.00 0.00 74 1011.3
20260507112244 55 115 0.0 0.0 0.00 0.00 0.00 69 1011.2
20260507111743 53 216 0.0 0.0 0.00 0.00 0.00 69 1011.4
20260507111239 54 220 0.0 0.0 0.00 0.00 0.00 68 1011.3
20260507110735 55 336 0.0 0.0 0.00 0.00 0.00 62 1011.8
20260507110232 55 238 0.0 0.0 0.00 0.00 0.00 62 1011.3
20260507105728 55 234 0.0 0.0 0.00 0.00 0.00 62 1011.4
20260507105224 57 237 0.0 0.0 0.00 0.00 0.00 57 1011.3
20260507104722 58 195 0.0 0.0 0.00 0.00 0.00 53 1011.0
20260507104219 57 195 0.0 0.0 0.00 0.00 0.00 53 1011.1
20260507103714 56 213 0.0 0.0 0.00 0.00 0.00 56 1011.1
20260507103211 56 229 0.0 0.0 0.00 0.00 0.00 57 1011.0
20260507102707 57 213 0.0 0.0 0.00 0.00 0.00 56 1010.8
20260507102204 57 229 0.0 0.0 0.00 0.00 0.00 56 1011.0
20260507101700 57 198 0.0 0.0 0.00 0.00 0.00 55 1011.0
20260507101155 57 177 0.0 0.0 0.00 0.00 0.00 55 1010.9
20260507100653 57 172 0.0 0.0 0.00 0.00 0.00 56 1010.6
20260507100151 57 157 5.0 8.0 0.00 0.00 0.00 55 1010.8
20260507095649 58 144 0.0 1.0 0.00 0.00 0.00 54 1010.9
20260507095145 59 156 10.0 11.0 0.00 0.00 0.00 52 1010.8
20260507094642 60 155 9.0 11.0 0.00 0.00 0.00 49 1010.9
20260507094138 59 107 3.0 6.0 0.00 0.00 0.00 49 1010.9
20260507093636 57 89 3.0 6.0 0.00 0.00 0.00 53 1010.4
20260507093135 57 122 9.0 10.0 0.00 0.00 0.00 54 1010.5
20260507092631 58 149 0.0 0.0 0.00 0.00 0.00 55 1010.6
20260507092127 57 185 0.0 0.0 0.00 0.00 0.00 58 1010.5
20260507091624 57 217 0.0 0.0 0.00 0.00 0.00 56 1010.6
20260507091120 57 211 0.0 0.0 0.00 0.00 0.00 54 1010.2
20260507090616 58 204 0.0 0.0 0.00 0.00 0.00 54 1010.2
20260507090113 58 193 0.0 0.0 0.00 0.00 0.00 53 1010.3
20260507085610 58 189 0.0 0.0 0.00 0.00 0.00 53 1010.1
20260507085107 59 172 0.0 0.0 0.00 0.00 0.00 53 1010.1
20260507084604 59 157 0.0 0.0 0.00 0.00 0.00 51 1009.9
20260507084101 60 188 0.0 0.0 0.00 0.00 0.00 49 1010.0
20260507083557 60 173 0.0 0.0 0.00 0.00 0.00 50 1010.1
20260507083054 60 175 0.0 0.0 0.00 0.00 0.00 49 1010.1
20260507082550 61 246 0.0 0.0 0.00 0.00 0.00 50 1010.1
20260507082047 61 220 0.0 0.0 0.00 0.00 0.00 48 1010.1
20260507081543 60 51 0.0 0.0 0.00 0.00 0.00 48 1010.3
20260507081040 60 235 0.0 0.0 0.00 0.00 0.00 51 1010.2
20260507080536 57 228 0.0 0.0 0.00 0.00 0.00 52 1009.4
20260507080033 57 228 0.0 0.0 0.00 0.00 0.00 54 1009.4
20260507075527 57 233 0.0 0.0 0.00 0.00 0.00 54 1009.8
20260507075024 57 234 0.0 0.0 0.00 0.00 0.00 56 1009.4
20260507074521 56 245 0.0 0.0 0.00 0.00 0.00 57 1009.5
20260507074020 56 235 0.0 0.0 0.00 0.00 0.00 58 1009.3
20260507073515 56 233 0.0 0.0 0.00 0.00 0.00 57 1009.6
20260507073012 57 238 0.0 0.0 0.00 0.00 0.00 56 1009.3
20260507072510 56 243 0.0 0.0 0.00 0.00 0.00 56 1009.3
20260507072007 57 259 0.0 0.0 0.00 0.00 0.00 55 1009.1
20260507071504 57 239 0.0 0.0 0.00 0.00 0.00 56 1009.5
20260507071000 57 234 0.0 0.0 0.00 0.00 0.00 56 1009.3
20260507070458 57 233 0.0 0.0 0.00 0.00 0.00 54 1009.4
20260507065954 58 242 0.0 0.0 0.00 0.00 0.00 55 1009.3
20260507065451 58 227 0.0 0.0 0.00 0.00 0.00 52 1009.3
20260507064948 59 225 0.0 0.0 0.00 0.00 0.00 51 1009.6
20260507064446 61 219 0.0 0.0 0.00 0.00 0.00 48 1009.4
20260507063944 61 205 0.0 0.0 0.00 0.00 0.00 47 1009.4
20260507063440 61 194 0.0 0.0 0.00 0.00 0.00 47 1009.2
20260507062937 62 195 0.0 0.0 0.00 0.00 0.00 47 1009.2
20260507062435 62 194 0.0 0.0 0.00 0.00 0.00 47 1009.3
20260507061932 62 190 0.0 0.0 0.00 0.00 0.00 47 1009.2
20260507061430 62 179 0.0 0.0 0.00 0.00 0.00 47 1009.2
20260507060928 62 154 1.0 5.0 0.00 0.00 0.00 47 1009.1
20260507060425 62 173 0.0 0.0 0.00 0.00 0.00 48 1009.1
20260507055922 62 168 2.0 3.0 0.00 0.00 0.00 46 1008.8
20260507055417 62 177 0.0 0.0 0.00 0.00 0.00 46 1008.9
20260507054914 62 190 0.0 0.0 0.00 0.00 0.00 46 1009.1
20260507054410 62 136 4.0 7.0 0.00 0.00 0.00 47 1009.1
20260507053908 62 205 0.0 0.0 0.00 0.00 0.00 46 1009.0
20260507053405 62 179 0.0 0.0 0.00 0.00 0.00 45 1009.2
20260507052904 62 163 3.0 7.0 0.00 0.00 0.00 44 1009.2
20260507052400 62 159 0.0 0.0 0.00 0.00 0.00 43 1009.4
20260507051857 62 127 0.0 2.0 0.00 0.00 0.00 43 1009.1
20260507051355 62 154 5.0 6.0 0.00 0.00 0.00 44 1009.2
20260507050851 62 111 0.0 1.0 0.00 0.00 0.00 42 1009.3
20260507050348 62 137 3.0 5.0 0.00 0.00 0.00 43 1009.2
20260507045845 62 141 0.0 0.0 0.00 0.00 0.00 43 1009.4
20260507045342 62 131 5.0 6.0 0.00 0.00 0.00 43 1009.2
20260507044839 62 121 3.0 3.0 0.00 0.00 0.00 43 1009.5
20260507044335 63 207 0.0 0.0 0.00 0.00 0.00 42 1009.4
20260507043831 63 206 0.0 0.0 0.00 0.00 0.00 41 1009.4
20260507043328 64 193 2.0 2.0 0.00 0.00 0.00 41 1009.4
20260507042824 64 203 1.0 2.0 0.00 0.00 0.00 40 1009.2
20260507042320 64 262 2.0 2.0 0.00 0.00 0.00 38 1009.3
20260507041817 63 116 2.0 3.0 0.00 0.00 0.00 43 1009.3
20260507041313 64 191 2.0 2.0 0.00 0.00 0.00 41 1009.3
20260507040811 64 188 2.0 3.0 0.00 0.00 0.00 41 1009.1
20260507040307 64 218 0.0 0.0 0.00 0.00 0.00 40 1009.0
20260507035803 64 158 5.0 6.0 0.00 0.00 0.00 40 1008.8
20260507035258 62 252 0.0 0.0 0.00 0.00 0.00 46 1009.2
20260507034756 61 244 0.0 0.0 0.00 0.00 0.00 46 1009.2
20260507034253 61 233 0.0 0.0 0.00 0.00 0.00 48 1008.9
20260507033751 62 249 0.0 0.0 0.00 0.00 0.00 45 1008.9
20260507033249 63 238 0.0 0.0 0.00 0.00 0.00 46 1008.4
20260507032745 63 215 0.0 0.0 0.00 0.00 0.00 42 1008.6
20260507032241 63 229 0.0 0.0 0.00 0.00 0.00 43 1008.6
20260507031738 64 227 0.0 0.0 0.00 0.00 0.00 40 1008.9
20260507031235 65 231 0.0 0.0 0.00 0.00 0.00 37 1008.6
20260507030732 65 232 0.0 0.0 0.00 0.00 0.00 37 1008.6
20260507030229 65 225 0.0 0.0 0.00 0.00 0.00 36 1008.8
20260507025726 65 230 0.0 0.0 0.00 0.00 0.00 37 1009.1
20260507025223 65 225 0.0 0.0 0.00 0.00 0.00 35 1008.6
20260507024722 66 235 0.0 0.0 0.00 0.00 0.00 36 1008.8
20260507024218 66 232 0.0 0.0 0.00 0.00 0.00 33 1008.8
20260507023714 67 225 0.0 0.0 0.00 0.00 0.00 34 1008.5